TimeHST,TemperatureF,Dew PointF,Humidity,Sea Level PressureIn,VisibilityMPH,Wind Direction,Wind SpeedMPH,Gust SpeedMPH,PrecipitationIn,Events,Conditions,WindDirDegrees,DateUTC
12:58 AM,67.8,64.6,89,29.91,10.0,NW,3.5,-,N/A,,Partly Cloudy,320,2013-11-07 10:58:00
1:58 AM,66.6,64.0,92,29.90,10.0,Calm,Calm,-,N/A,,Clear,0,2013-11-07 11:58:00
2:58 AM,66.2,63.3,90,29.89,10.0,WNW,4.6,-,N/A,,Clear,300,2013-11-07 12:58:00
3:58 AM,65.5,63.0,92,29.90,10.0,NW,3.5,-,N/A,,Clear,310,2013-11-07 13:58:00
4:58 AM,64.6,62.2,92,29.89,10.0,WNW,2.3,-,N/A,,Clear,290,2013-11-07 14:58:00
5:58 AM,65.8,63.5,92,29.92,10.0,Calm,Calm,-,N/A,,Clear,0,2013-11-07 15:58:00
6:58 AM,66.2,63.9,92,29.95,10.0,NNE,1.2,-,N/A,,Clear,20,2013-11-07 16:58:00
7:58 AM,69.8,66.2,88,29.95,10.0,North,2.3,-,N/A,,Clear,360,2013-11-07 17:58:00
8:58 AM,73.9,66.9,79,29.97,10.0,Calm,Calm,-,N/A,,Clear,0,2013-11-07 18:58:00
9:58 AM,76.8,67.5,73,29.98,10.0,Variable,2.3,-,N/A,,Partly Cloudy,0,2013-11-07 19:58:00
10:58 AM,78.6,66.4,66,29.96,10.0,Variable,1.2,-,N/A,,Clear,0,2013-11-07 20:58:00
11:58 AM,80.4,66.0,61,29.93,10.0,Variable,6.9,-,N/A,,Mostly Cloudy,0,2013-11-07 21:58:00
12:58 PM,82.8,66.7,58,29.92,10.0,SE,9.2,-,N/A,,Mostly Cloudy,130,2013-11-07 22:58:00
1:58 PM,81.3,67.3,62,29.89,10.0,South,10.4,-,N/A,,Overcast,190,2013-11-07 23:58:00
2:58 PM,78.8,68.0,69,29.89,10.0,Variable,4.6,-,N/A,,Mostly Cloudy,0,2013-11-08 00:58:00
3:18 PM,78.8,68.0,69,29.92,10.0,Variable,1.2,-,N/A,,Scattered Clouds,0,2013-11-08 01:18:00
3:38 PM,78.8,68.0,69,29.92,10.0,North,6.9,-,N/A,,Mostly Cloudy,10,2013-11-08 01:38:00
3:58 PM,77.4,68.4,74,29.91,10.0,ENE,8.1,-,N/A,,Overcast,60,2013-11-08 01:58:00
4:38 PM,77.0,68.0,74,29.94,10.0,ENE,9.2,-,N/A,,Mostly Cloudy,70,2013-11-08 02:38:00
4:58 PM,76.5,67.8,75,29.92,10.0,ENE,6.9,-,N/A,,Mostly Cloudy,70,2013-11-08 02:58:00
5:19 PM,75.2,68.0,78,29.95,10.0,ENE,5.8,-,N/A,Rain,Light Rain,70,2013-11-08 03:19:00
5:34 PM,75.2,68.0,78,29.96,10.0,East,6.9,-,N/A,Rain,Light Rain,90,2013-11-08 03:34:00
5:39 PM,75.2,68.0,78,29.96,10.0,East,4.6,-,N/A,,Overcast,90,2013-11-08 03:39:00
5:58 PM,74.3,68.2,81,29.94,10.0,ENE,5.8,-,0.00,,Mostly Cloudy,60,2013-11-08 03:58:00
6:58 PM,73.6,66.4,78,29.97,10.0,Calm,Calm,-,N/A,,Overcast,0,2013-11-08 04:58:00
7:58 PM,73.4,65.7,77,29.98,10.0,Variable,4.6,-,N/A,,Mostly Cloudy,0,2013-11-08 05:58:00
8:58 PM,72.9,66.2,80,29.99,10.0,East,3.5,-,N/A,,Partly Cloudy,80,2013-11-08 06:58:00
9:58 PM,73.2,67.1,81,29.99,10.0,South,2.3,-,N/A,,Overcast,180,2013-11-08 07:58:00
10:58 PM,72.0,66.9,84,29.98,10.0,Calm,Calm,-,N/A,,Scattered Clouds,0,2013-11-08 08:58:00
11:58 PM,71.6,67.1,86,29.97,10.0,West,4.6,-,N/A,,Overcast,280,2013-11-08 09:58:00